Midland, MI

5:16 AM EST on November 20, 2017 (GMT -0500)
Barstow

Weather History for KIKW - March, 2014

Change the Weather History Date:

Thursday, March 6, 2014

  Actual Average (KMBS) Record (KMBS)
Temperature  
Mean Temperature 7 °F -  
Max Temperature 22 °F 32 °F 60 °F (2017)
Min Temperature -8 °F 19 °F -4 °F (2014)
Degree Days  
Heating Degree Days 58    
Moisture  
Dew Point 2 °F    
Average Humidity 71    
Maximum Humidity 88    
Minimum Humidity 51    
Precipitation  
Precipitation 0.00 in - - ()
Sea Level Pressure  
Sea Level Pressure 30.38 in    
Wind  
Wind Speed 3 mph (East)    
Max Wind Speed 13 mph    
Max Gust Speed -    
Visibility 10 miles    
Events      
Averages and records for this station are not official NWS values.
T = Trace of Precipitation, MM = Missing Value Source: NWS Daily Summary

Daily Weather History Graph

Daily Weather History Graph

Search for Another Location

Airport or City:

Trip Planner

Search our weather history database for the weather conditions in past years. The results will help you decide how hot, cold, wet, or windy it might be!

Date:

Astronomy

Mar. 06, 2014 Rise Set
Actual Time 7:05 AM EST 6:32 PM EST
Civil Twilight 6:36 AM EST 7:00 PM EST
Nautical Twilight 6:03 AM EST 7:34 PM EST
Astronomical Twilight 5:29 AM EST 8:07 PM EST
Moon 10:01 AM EST (3/6) No Moon Set
Length of Visible Light 12h 24m
Length of Day
11h 27m
Waxing Crescent, 32% of the Moon is Illuminated
Mar 6
Waxing Crescent
Mar 8
First Quarter
Mar 16
Full
Mar 23
Last Quarter
Mar 30
New

Hourly Weather History & Observations

Time (EST) Temp. Windchill Dew Point Humidity Pressure Visibility Wind Dir Wind Speed Gust Speed Precip Events Conditions
12:13 AM 1.4 °F - -2.6 °F 83% 30.53 in 10.0 mi Calm Calm - N/A   Clear
12:33 AM 0.7 °F - -3.1 °F 84% 30.53 in 10.0 mi Calm Calm - N/A   Clear
12:53 AM 2.7 °F - -1.1 °F 84% 30.53 in 10.0 mi Calm Calm - N/A   Clear
1:13 AM 2.7 °F - -1.1 °F 84% 30.53 in 10.0 mi Calm Calm - N/A   Clear
1:33 AM 4.1 °F -3.2 °F 0.5 °F 85% 30.54 in 10.0 mi NE 3.5 mph - N/A   Clear
1:53 AM 5.7 °F -1.3 °F 2.5 °F 86% 30.54 in 10.0 mi ENE 3.5 mph - N/A   Clear
2:13 AM 5.7 °F -1.3 °F 2.3 °F 86% 30.54 in 10.0 mi NE 3.5 mph - N/A   Clear
2:33 AM 1.9 °F - -2.9 °F 80% 30.54 in 10.0 mi Calm Calm - N/A   Clear
2:53 AM -1.5 °F - -5.6 °F 83% 30.53 in 10.0 mi Calm Calm - N/A   Clear
3:13 AM 0.5 °F - -3.5 °F 83% 30.53 in 10.0 mi Calm Calm - N/A   Clear
3:33 AM 1.6 °F -6.0 °F -2.0 °F 85% 30.52 in 10.0 mi East 3.5 mph - N/A   Clear
3:53 AM 1.9 °F - -1.8 °F 84% 30.52 in 10.0 mi Calm Calm - N/A   Clear
4:13 AM -1.5 °F - -5.4 °F 83% 30.52 in 10.0 mi Calm Calm - N/A   Clear
4:33 AM -4.0 °F - -8.5 °F 81% 30.52 in 10.0 mi Calm Calm - N/A   Clear
4:53 AM -3.8 °F - -8.0 °F 82% 30.52 in 10.0 mi Calm Calm - N/A   Clear
5:13 AM -4.9 °F - -9.4 °F 81% 30.52 in 10.0 mi Calm Calm - N/A   Clear
5:33 AM -6.2 °F - -10.8 °F 80% 30.51 in 10.0 mi Calm Calm - N/A   Clear
5:53 AM -7.1 °F - -11.7 °F 80% 30.51 in 10.0 mi Calm Calm - N/A   Clear
6:13 AM -8.5 °F - -13.4 °F 79% 30.51 in 10.0 mi Calm Calm - N/A   Clear
6:33 AM -8.3 °F - -13.0 °F 80% 30.50 in 10.0 mi Calm Calm - N/A   Clear
6:53 AM -8.1 °F - -13.0 °F 79% 30.50 in 10.0 mi Calm Calm - N/A   Clear
7:13 AM -8.1 °F - -13.2 °F 79% 30.50 in 10.0 mi Calm Calm - N/A   Clear
7:33 AM -8.9 °F - -13.4 °F 81% 30.49 in 10.0 mi Calm Calm - N/A   Clear
7:53 AM -7.1 °F - -11.7 °F 80% 30.50 in 10.0 mi Calm Calm - N/A   Clear
8:08 AM -5.4 °F -14.1 °F -9.8 °F 82% 30.49 in 10.0 mi East 3.5 mph - N/A   Clear
8:36 AM 3.2 °F -6.2 °F -0.4 °F 85% 30.49 in 10.0 mi East 4.6 mph - N/A   Clear
8:45 AM 5.4 °F -5.2 °F 1.9 °F 86% 30.49 in 10.0 mi ENE 5.8 mph - N/A   Clear
8:53 AM 5.5 °F -3.4 °F 2.1 °F 86% 30.49 in 10.0 mi ENE 4.6 mph - N/A   Clear
9:14 AM 8.4 °F -0.1 °F 5.2 °F 87% 30.48 in 10.0 mi East 4.6 mph - N/A   Clear
9:33 AM 10.6 °F -0.2 °F 7.7 °F 88% 30.47 in 10.0 mi East 6.9 mph - N/A   Clear
9:53 AM 12.2 °F -0.2 °F 9.3 °F 88% 30.45 in 10.0 mi ESE 9.2 mph - N/A   Clear
10:13 AM 13.5 °F 2.2 °F 7.7 °F 78% 30.45 in 10.0 mi ESE 8.1 mph - N/A   Clear
10:33 AM 15.3 °F 3.5 °F 6.8 °F 69% 30.45 in 10.0 mi East 9.2 mph - N/A   Clear
10:53 AM 16.3 °F 4.1 °F 6.4 °F 65% 30.43 in 10.0 mi ESE 10.4 mph - N/A   Clear
11:13 AM 17.2 °F 3.9 °F 6.4 °F 63% 30.43 in 10.0 mi East 12.7 mph - N/A   Clear
11:33 AM 17.6 °F 7.3 °F 6.6 °F 62% 30.43 in 10.0 mi ENE 8.1 mph - N/A   Clear
11:53 AM 18.0 °F 7.7 °F 6.8 °F 62% 30.42 in 10.0 mi ENE 8.1 mph - N/A   Clear
12:13 PM 18.5 °F 7.5 °F 6.8 °F 60% 30.41 in 10.0 mi East 9.2 mph - N/A   Clear
12:33 PM 18.7 °F 9.5 °F 7.2 °F 61% 30.41 in 10.0 mi East 6.9 mph - N/A   Clear
12:53 PM 19.4 °F 11.5 °F 6.8 °F 58% 30.40 in 10.0 mi East 5.8 mph - N/A   Clear
1:13 PM 20.3 °F 10.6 °F 7.3 °F 57% 30.39 in 10.0 mi ENE 8.1 mph - N/A   Clear
1:33 PM 20.7 °F 11.9 °F 7.5 °F 57% 30.38 in 10.0 mi East 6.9 mph - N/A   Clear
1:53 PM 21.2 °F 12.6 °F 7.9 °F 57% 30.36 in 10.0 mi East 6.9 mph - N/A   Clear
2:13 PM 21.7 °F 12.3 °F 8.1 °F 56% 30.35 in 10.0 mi ENE 8.1 mph - N/A   Clear
2:33 PM 21.9 °F 11.7 °F 7.7 °F 54% 30.33 in 10.0 mi ENE 9.2 mph - N/A   Clear
2:53 PM 22.1 °F 13.7 °F 7.5 °F 54% 30.32 in 10.0 mi ENE 6.9 mph - N/A   Clear
3:13 PM 22.1 °F 12.8 °F 7.5 °F 54% 30.31 in 10.0 mi ENE 8.1 mph - N/A   Clear
3:33 PM 22.6 °F 14.3 °F 6.8 °F 51% 30.29 in 10.0 mi East 6.9 mph - N/A   Clear
3:53 PM 21.9 °F 11.7 °F 8.1 °F 55% 30.29 in 10.0 mi ENE 9.2 mph - N/A   Clear
4:13 PM 21.6 °F 12.1 °F 7.9 °F 56% 30.29 in 10.0 mi East 8.1 mph - N/A   Clear
4:34 PM 21.2 °F 12.6 °F 7.3 °F 55% 30.27 in 10.0 mi East 6.9 mph - N/A   Clear
4:53 PM 20.8 °F 13.2 °F 7.2 °F 56% 30.27 in 10.0 mi ENE 5.8 mph - N/A   Clear
5:13 PM 20.3 °F 11.5 °F 6.6 °F 56% 30.26 in 10.0 mi East 6.9 mph - N/A   Clear
5:33 PM 19.9 °F 10.1 °F 5.7 °F 54% 30.25 in 10.0 mi East 8.1 mph - N/A   Clear
5:54 PM 19.0 °F 11.1 °F 5.0 °F 54% 30.24 in 10.0 mi East 5.8 mph - N/A   Clear
6:13 PM 19.2 °F 9.3 °F 5.2 °F 54% 30.23 in 10.0 mi ENE 8.1 mph - N/A   Clear
6:33 PM 18.0 °F 11.1 °F 5.2 °F 57% 30.23 in 10.0 mi ENE 4.6 mph - N/A   Clear
6:53 PM 17.4 °F 10.4 °F 5.0 °F 58% 30.21 in 10.0 mi ENE 4.6 mph - N/A   Clear
7:13 PM 17.6 °F - 5.2 °F 58% 30.21 in 10.0 mi Calm Calm - N/A   Clear
7:33 PM 17.1 °F - 5.5 °F 61% 30.20 in 10.0 mi Calm Calm - N/A   Clear
7:54 PM 15.8 °F - 5.2 °F 63% 30.20 in 10.0 mi Calm Calm - N/A   Clear
8:13 PM 12.6 °F - 3.7 °F 68% 30.20 in 10.0 mi Calm Calm - N/A   Clear
8:33 PM 14.5 °F - 5.0 °F 66% 30.19 in 10.0 mi Calm Calm - N/A   Clear
8:54 PM 13.8 °F - 5.0 °F 68% 30.20 in 10.0 mi Calm Calm - N/A   Clear
9:13 PM 10.8 °F - 3.2 °F 72% 30.19 in 10.0 mi Calm Calm - N/A   Clear
9:33 PM 12.0 °F - 4.6 °F 72% 30.18 in 10.0 mi Calm Calm - N/A   Clear
9:53 PM 11.1 °F - 4.1 °F 73% 30.19 in 10.0 mi Calm Calm - N/A   Clear
10:13 PM 8.2 °F - 2.3 °F 77% 30.17 in 10.0 mi Calm Calm - N/A   Clear
10:33 PM 11.3 °F - 3.9 °F 72% 30.17 in 10.0 mi Calm Calm - N/A   Clear
10:53 PM 11.8 °F - 4.1 °F 71% 30.16 in 10.0 mi Calm Calm - N/A   Clear
11:13 PM 12.6 °F - 4.1 °F 69% 30.15 in 10.0 mi Calm Calm - N/A   Clear
11:33 PM 13.8 °F - 5.5 °F 70% 30.15 in 10.0 mi Calm Calm - N/A   Clear
11:53 PM 16.7 °F 11.2 °F 7.9 °F 68% 30.14 in 10.0 mi South 3.5 mph - N/A   Clear